Regional Weather Roundup
Issued by NWS Charleston, SC

Home | Current Version | Previous Version | Text Only | Print | Product List | Glossary On
Versions: 1 2 3 4 5 6 7 8 9 10 11 12 13 14 15 16 17 18 19 20 21 22 23 24 25 26 27 28 29 30 31 32 33 34 35 36 37 38 39 40 41 42 43 44 45 46 47 48 49 50
000
ASUS42 KCHS 211110
RWRCHS
REGIONAL WEATHER ROUNDUP
NATIONAL WEATHER SERVICE CHARLESTON SC
700 AM EDT THU AUG 21 2014

NOTE: "FAIR" INDICATES FEW OR NO CLOUDS BELOW 12,000 FEET WITH NO
SIGNIFICANT WEATHER AND/OR OBSTRUCTIONS TO VISIBILITY.

NOT ALL STATIONS ARE QUALITY CONTROLLED BY THE NATIONAL
WEATHER SERVICE. USE DATA WITH CAUTION...ESPECIALLY
DEWPOINT OBSERVATIONS.

SCZ027-030-031-034>040-042>050-211200-
...SOUTH CAROLINA...

CITY           SKY/WX    TMP DP  RH WIND       PRES   REMARKS
N CHARLESTON   PTCLDY    76  71  85 W3        30.04R
WATERFRONT PRK   N/A     77 N/A N/A SW5         N/A
FORT JOHNSON   NOT AVBL
MOUNT PLEASANT FAIR      75  73  94 CALM      30.03R FOG
JOHNS ISLAND   SUNNY     75  73  94 CALM      30.04R
PINOPOLIS        N/A     79  72  78 SW7       29.94R
MONCKS CORNER    N/A     73  73 100 CALM      30.03R
SUMMERVILLE    FAIR      72  72 100 CALM      30.04R
BEAUFORT MCAS  MOCLDY    75  70  84 CALM      30.04R
BEAUFORT ARPT  FAIR      75  72  88 CALM      30.04R
HILTON HEAD IS CLEAR     75  72  88 SW6       30.06R
GEORGETOWN     NOT AVBL
WALTERBORO     MOSUNNY   73 N/A N/A W6        30.06R
ORANGEBURG     CLEAR     73  68  84 NW3       30.05R
BARNWELL       FAIR      73  70  88 CALM      30.06S
AIKEN          FAIR      70  70 100 CALM      30.11R
MANNING        FAIR      73 N/A N/A CALM      30.04R
KINGSTREE      NOT AVBL
COLUMBIA       PTCLDY    75  68  78 W6        30.05R
SUMTER         CLEAR     75  72  88 VRB3      30.03R
FLORENCE       CLEAR     75  73  93 NW3       30.03R
MYRTLE BEACH   CLEAR     77  73  88 CALM      30.02R
N MYRTLE BEACH CLEAR     75  74  96 CALM      30.02R FOG

$$

GAZ063-065-086>088-099>101-113>116-118-119-134-136>141-150-211200-
...GEORGIA...

CITY           SKY/WX    TMP DP  RH WIND       PRES   REMARKS
SAVANNAH ARPT  PTCLDY    74  68  81 SW3       30.06R
HUNTER AAF     CLEAR     73  70  92 SW5       30.04R
FORT STEWART   CLEAR     71  68  90 CALM      30.06R
STATESBORO     NOT AVBL
SYLVANIA       SUNNY     71  71  99 CALM      30.08R
CLAXTON        FAIR     N/A N/A N/A CALM      30.07R
THOMSON        CLEAR     70  70 100 CALM      30.13R
AUGUSTA-BUSH   PTCLDY    72  68  87 W3        30.06R
AUGUSTA-DANIEL PTCLDY    75  68  78 W3        30.08R
SWAINSBORO     FAIR      72  72 100 CALM      30.09R
VIDALIA          N/A     72  70  94 W3        30.09R
ALMA           CLEAR     71  69  93 SW3       30.08R
WAYCROSS       CLEAR     75  73  93 CALM      30.08R
JESUP            N/A     72  70  94 W3        30.07R
BRUNSWICK      CLEAR     73  68  83 W5        30.08R
SAINT SIMONS   CLEAR     75  69  81 W3        30.07R

$$

SCZ027-028-034-036>038-045-046-048>050-GAZ119-141-211200-
...LAKE AND SUPPLEMENTAL COASTAL OBSERVATIONS...

STATION/POSITION TIME  TEMP    WIND        PRES    WAVE   SWELL
                       AIR SEA DIR/SP/G            HT/PER HT/PER/DIR
                 (UTC) (F)     (DEG/KT/KT) (MB)    (FT/S) (FT/S/D)
UPR LAKE MARION  NOT AVBL
WINYAH BAY       1000   77     250/  2     1015.0S
LAKE MURRAY      1000   75      CALM  /  2 1016.9R
ACE BASIN NERRS  1000   75        CALM     1016.0S
FORT PULASKI     1100   76     230/  5/  6 1017.8R
SAPELO ISLAND    1000   77     260/  5     1018.0S

$$

ANZ835-935-AMZ111-154-330-350-352-354-374-450-454-472-211200-
...C-MAN AND BUOY OBSERVATIONS...

STATION/POSITION TIME  TEMP    WIND        PRES    WAVE   SWELL
                       AIR SEA DIR/SP/G            HT/PER HT/PER/DIR
                 (UTC) (F)     (DEG/KT/KT) (MB)    (FT/S) (FT/S/D)
FOLLY BEACH CMAN 1000   78     260/  3/  4 1017.1R
BUOY 41004       1100   83 84  220/  8/ 10 1016.1R   3/ 5   2/ 5
BUOY 41008       1100   82 85  300/  8/ 10 1017.5R   2/ 8   2/130/ 8
5E ST. MARYS GA  1100      82                N/A     1/10
FRYING PAN BUOY  NOT AVBL
BUOY 41025       1100   80     180/  4/  6 1017.0R   3/ 8   3/ 50/ 8
CAPE LOOKOUT NC  1000   79     200/  5/  6 1015.9R
BUOY 41002       0953   81 81  250/ 12/ 14 1018.5R   3/ 5   2/250/ 6
BUOY 41010       1100   84 85  230/ 10/ 12 1019.1R   2/ 4   2/110/ 9
BUOY 41012       NOT AVBL
ST AUGUSTINE FL  1100   76     220/  2/  2 1019.3R
CAPERS NEARSHORE 1000   81     270/  8/ 10   N/A
FRIPP NEARSHORE  NOT AVBL


$$


USA.gov is the U.S. government's official web portal to all federal, state and local government web resources and services.